Weather History for KBTA - May, 2013

Change the Weather History Date:

Tuesday, May 14, 2013

  Actual Average (KOMA) Record (KOMA)
Temperature  
Mean Temperature 80 °F 62 °F  
Max Temperature 102 °F 73 °F 101 °F (2013)
Min Temperature 59 °F 50 °F 33 °F (1907)
Degree Days  
Heating Degree Days 0 5  
Month to date heating degree days 92  
Since 1 July heating degree days 6094  
Cooling Degree Days 16 2  
Month to date cooling degree days 17  
Year to date cooling degree days 33  
Growing Degree Days 30 (Base 50)    
Moisture  
Dew Point 49 °F    
Average Humidity 41    
Maximum Humidity 81    
Minimum Humidity 12    
Precipitation  
Precipitation 0.00 in 0.16 in 1.25 in (1909)
Month to date precipitation 2.04  
Year to date precipitation 8.56  
Snow  
Snow 0.00 in 0.00 in - ()
Month to date snowfall 0.1  
Since 1 July snowfall 26.5  
Snow Depth -    
Sea Level Pressure  
Sea Level Pressure 29.74 in    
Wind  
Wind Speed 12 mph (SSW)    
Max Wind Speed 32 mph    
Max Gust Speed 40 mph    
Visibility 10 miles    
Events      
T = Trace of Precipitation, MM = Missing Value Source: NWS Daily Summary

Daily Weather History Graph

Daily Weather History Graph

Search for Another Location

Airport or City:

Trip Planner

Search our weather history database for the weather conditions in past years. The results will help you decide how hot, cold, wet, or windy it might be!

Date:

Astronomy

May. 14, 2013 Rise Set
Actual Time 6:06 AM CDT 8:35 PM CDT
Civil Twilight 5:34 AM CDT 9:07 PM CDT
Nautical Twilight 4:55 AM CDT 9:46 PM CDT
Astronomical Twilight 4:11 AM CDT 10:30 PM CDT
Moon 9:47 AM CDT (5/14) No Moon Set
Length of Visible Light 15h 32m
Length of Day
14h 29m
Waxing Crescent, 19% of the Moon is Illuminated
May 14
Waxing Crescent
May 17
First Quarter
May 24
Full
May 31
Last Quarter
Jun 8
New

Hourly Weather History & Observations

Time (CDT) Temp. Heat Index Dew Point Humidity Pressure Visibility Wind Dir Wind Speed Gust Speed Precip Events Conditions
12:15 AM 68.4 °F - 51.8 °F 55% 29.85 in 10.0 mi SSW 10.4 mph - N/A   Clear
12:35 AM 66.6 °F - 51.8 °F 59% 29.84 in 10.0 mi SSW 8.1 mph - N/A   Clear
12:55 AM 67.1 °F - 52.0 °F 58% 29.84 in 10.0 mi SSW 9.2 mph - N/A   Clear
1:15 AM 66.2 °F - 52.2 °F 61% 29.83 in 10.0 mi SSW 9.2 mph - N/A   Clear
1:35 AM 66.0 °F - 52.3 °F 61% 29.83 in 10.0 mi SSW 9.2 mph - N/A   Clear
1:55 AM 66.6 °F - 52.7 °F 61% 29.83 in 10.0 mi SSW 8.1 mph - N/A   Clear
2:15 AM 66.7 °F - 53.1 °F 61% 29.82 in 10.0 mi SSW 9.2 mph - N/A   Clear
2:35 AM 65.7 °F - 53.1 °F 64% 29.82 in 10.0 mi SSW 8.1 mph - N/A   Clear
2:55 AM 65.3 °F - 53.2 °F 65% 29.81 in 10.0 mi SSW 9.2 mph - N/A   Clear
3:15 AM 64.8 °F - 53.6 °F 67% 29.81 in 10.0 mi SSW 8.1 mph - N/A   Clear
3:35 AM 64.4 °F - 53.6 °F 68% 29.81 in 10.0 mi SSW 6.9 mph - N/A   Clear
3:55 AM 63.3 °F - 53.6 °F 71% 29.80 in 10.0 mi SSW 8.1 mph - N/A   Clear
4:15 AM 62.6 °F - 53.4 °F 72% 29.79 in 10.0 mi SSW 8.1 mph - N/A   Clear
4:35 AM 61.9 °F - 53.6 °F 74% 29.79 in 10.0 mi SSW 8.1 mph - N/A   Clear
4:55 AM 61.7 °F - 53.8 °F 75% 29.79 in 10.0 mi SSW 5.8 mph - N/A   Clear
5:15 AM 61.2 °F - 53.8 °F 77% 29.79 in 10.0 mi South 5.8 mph - N/A   Clear
5:35 AM 60.1 °F - 53.6 °F 79% 29.79 in 10.0 mi South 8.1 mph - N/A   Clear
5:55 AM 59.9 °F - 53.6 °F 80% 29.78 in 10.0 mi South 9.2 mph - N/A   Clear
6:15 AM 59.5 °F - 53.8 °F 81% 29.78 in 10.0 mi South 6.9 mph - N/A   Clear
6:35 AM 61.0 °F - 54.3 °F 79% 29.78 in 10.0 mi South 6.9 mph - N/A   Clear
6:55 AM 61.3 °F - 54.7 °F 79% 29.78 in 10.0 mi South 5.8 mph - N/A   Clear
7:15 AM 62.4 °F - 55.6 °F 78% 29.78 in 10.0 mi South 8.1 mph - N/A   Clear
7:35 AM 64.4 °F - 56.3 °F 75% 29.78 in 10.0 mi South 6.9 mph - N/A   Clear
7:55 AM 66.2 °F - 56.8 °F 72% 29.78 in 10.0 mi South 9.2 mph - N/A   Clear
8:15 AM 67.5 °F - 56.8 °F 69% 29.77 in 10.0 mi South 10.4 mph - N/A   Clear
8:35 AM 68.5 °F - 57.2 °F 67% 29.77 in 10.0 mi South 10.4 mph - N/A   Clear
8:55 AM 70.7 °F - 57.6 °F 63% 29.76 in 10.0 mi South 11.5 mph - N/A   Clear
9:15 AM 73.4 °F - 57.4 °F 57% 29.76 in 10.0 mi SSW 10.4 mph - N/A   Clear
9:35 AM 75.0 °F - 57.2 °F 54% 29.76 in 10.0 mi South 9.2 mph - N/A   Clear
9:55 AM 77.5 °F - 56.8 °F 49% 29.75 in 10.0 mi South 10.4 mph - N/A   Clear
10:15 AM 80.6 °F 80.4 °F 54.3 °F 40% 29.75 in 10.0 mi South 12.7 mph - N/A   Clear
10:35 AM 83.1 °F 81.9 °F 53.2 °F 36% 29.74 in 10.0 mi South 15.0 mph - N/A   Clear
10:55 AM 84.6 °F - 52.9 °F 33% 29.74 in 10.0 mi South 13.8 mph - N/A   Clear
11:15 AM 86.4 °F - 52.3 °F 31% 29.74 in 10.0 mi South 16.1 mph 20.7 mph N/A   Clear
11:35 AM 88.2 °F - 51.8 °F 29% 29.73 in 10.0 mi South 16.1 mph - N/A   Clear
11:55 AM 90.7 °F - 51.1 °F 26% 29.73 in 10.0 mi South 16.1 mph - N/A   Clear
12:15 PM 93.0 °F - 49.6 °F 23% 29.72 in 10.0 mi South 19.6 mph - N/A   Clear
12:35 PM 94.8 °F - 49.3 °F 21% 29.71 in 10.0 mi South 19.6 mph 25.3 mph N/A   Clear
12:55 PM 96.4 °F - 48.6 °F 20% 29.70 in 10.0 mi South 19.6 mph 25.3 mph N/A   Clear
1:15 PM 98.8 °F - 43.2 °F 15% 29.69 in 10.0 mi SSW 21.9 mph 31.1 mph N/A   Clear
1:35 PM 99.5 °F - 42.4 °F 14% 29.69 in 10.0 mi SSW 21.9 mph 35.7 mph N/A   Clear
1:55 PM 100.6 °F - 43.2 °F 14% 29.68 in 10.0 mi South 24.2 mph 32.2 mph N/A   Clear
2:15 PM 100.8 °F - 39.2 °F 12% 29.68 in 10.0 mi SSW 23.0 mph 34.5 mph N/A   Clear
2:35 PM 101.1 °F - 39.0 °F 12% 29.68 in 10.0 mi SSW 28.8 mph 33.4 mph N/A   Clear
2:55 PM 99.9 °F - 39.7 °F 13% 29.67 in 10.0 mi SSW 23.0 mph 32.2 mph N/A   Clear
3:15 PM 102.0 °F - 40.5 °F 12% 29.66 in 10.0 mi SSW 21.9 mph 39.1 mph N/A   Clear
3:35 PM 101.5 °F - 39.4 °F 12% 29.65 in 10.0 mi SSW 28.8 mph 38.0 mph N/A   Clear
3:55 PM 101.8 °F - 39.7 °F 12% 29.65 in 10.0 mi SSW 27.6 mph 33.4 mph N/A   Clear
4:15 PM 101.3 °F - 39.6 °F 12% 29.64 in 10.0 mi SSW 27.6 mph 34.5 mph N/A   Clear
4:35 PM 101.1 °F - 39.6 °F 12% 29.64 in 10.0 mi SSW 32.2 mph 40.3 mph N/A   Clear
4:55 PM 99.3 °F - 39.9 °F 13% 29.64 in 10.0 mi South 29.9 mph 34.5 mph N/A   Clear
5:15 PM 96.3 °F - 40.1 °F 14% 29.64 in 10.0 mi SSW 25.3 mph 31.1 mph N/A   Clear
5:35 PM 95.7 °F - 40.8 °F 15% 29.66 in 10.0 mi WSW 15.0 mph 28.8 mph N/A   Clear
5:55 PM 95.0 °F - 42.8 °F 16% 29.66 in 10.0 mi SSW 17.3 mph - N/A   Scattered Clouds
6:15 PM 93.7 °F - 43.3 °F 17% 29.65 in 10.0 mi SSW 18.4 mph 27.6 mph N/A   Scattered Clouds
6:35 PM 93.2 °F - 44.8 °F 19% 29.65 in 10.0 mi SSW 15.0 mph - N/A   Clear
6:55 PM 91.4 °F - 47.1 °F 22% 29.65 in 10.0 mi SSW 13.8 mph - N/A   Clear
7:15 PM 90.9 °F - 47.7 °F 23% 29.65 in 10.0 mi SSW 10.4 mph - N/A   Clear
7:35 PM 89.4 °F - 48.7 °F 25% 29.66 in 10.0 mi SSW 9.2 mph - N/A   Clear
7:55 PM 88.9 °F - 48.2 °F 25% 29.66 in 10.0 mi SSW 12.7 mph - N/A   Clear
8:15 PM 89.1 °F - 47.3 °F 24% 29.67 in 10.0 mi SW 11.5 mph - N/A   Clear
8:35 PM 87.4 °F - 47.8 °F 25% 29.68 in 10.0 mi SSW 11.5 mph - N/A   Clear
8:55 PM 86.4 °F - 47.3 °F 26% 29.69 in 10.0 mi WSW 9.2 mph - N/A   Clear
9:15 PM 87.6 °F - 45.3 °F 23% 29.70 in 10.0 mi SW 9.2 mph - N/A   Clear
9:55 PM 84.6 °F - 42.4 °F 23% 29.74 in 10.0 mi North 10.4 mph - N/A   Clear
10:15 PM 82.6 °F - 42.8 °F 25% 29.75 in 10.0 mi North 8.1 mph - N/A   Clear
10:35 PM 80.8 °F - 43.0 °F 26% 29.76 in 10.0 mi North 9.2 mph - N/A   Clear
10:55 PM 79.5 °F - 42.1 °F 26% 29.77 in 10.0 mi North 5.8 mph - N/A   Clear
11:15 PM 79.0 °F - 40.3 °F 25% 29.77 in 10.0 mi North 6.9 mph - N/A   Clear
11:35 PM 77.9 °F - 39.0 °F 25% 29.78 in 10.0 mi North 4.6 mph - N/A   Clear
11:55 PM 78.1 °F - 38.3 °F 24% 29.78 in 10.0 mi North 5.8 mph - N/A   Clear